Location: Newark
(12.5331°N, 56.4669°W)
Time: 06:28:35
(UTC+00:00)

LightSail 2 - Visible Passes

Search period start: 26 January 2020 00:00
Search period end: 05 February 2020 00:00
Orbit: 704 x 719 km, 24.0° (Epoch: 25 January)

Date Brightness Start Highest point End Pass type
(mag) Time Alt. Az. Time Alt. Az. Time Alt. Az.
26 Jan 7.2 00:01:10 10° WNW 00:02:58 21° NW 00:02:58 21° NW visible
26 Jan 5.7 23:02:48 10° NW 23:07:37 40° NNE 23:08:25 38° NE visible
27 Jan 6.1 22:04:26 10° NW 22:09:01 32° NNE 22:13:38 10° ENE visible
27 Jan 6.2 23:49:35 10° WNW 23:52:54 40° WNW 23:52:54 40° WNW visible
28 Jan 5.2 22:51:10 10° WNW 22:56:14 61° NNE 22:58:29 32° E visible
29 Jan 8.0 00:36:53 10° W 00:37:27 13° W 00:37:27 13° W visible
29 Jan 5.5 23:38:10 10° WNW 23:43:08 58° SSW 23:43:08 58° SSW visible
30 Jan 5.2 22:39:35 10° WNW 22:44:44 83° SSW 22:48:52 16° ESE visible
31 Jan 7.7 00:26:04 10° WSW 00:27:52 17° WSW 00:27:52 17° WSW visible
31 Jan 6.5 23:27:01 10° W 23:31:38 33° SSW 23:33:41 24° SSE visible
01 Feb 6.0 22:28:12 10° W 22:33:07 48° SSW 22:38:05 10° SE visible
02 Feb 7.8 00:16:12 10° SW 00:18:31 13° SSW 00:18:31 13° SSW visible
02 Feb 7.4 23:16:24 10° WSW 23:19:59 19° SSW 23:23:37 10° SSE visible
03 Feb 7.1 22:17:09 10° W 22:21:28 27° SSW 22:25:48 10° SSE visible
04 Feb 8.0 23:07:36 10° SW 23:08:23 10° SSW 23:09:11 10° SSW visible
